Location: Unspecified
(50.1700°N, 6.8600°E)
Time: 15:55:27
(UTC+00:00)

Cosmos 1812 Rocket - Pass Details

Date: 24 January 2019
Orbit: 605 x 632 km, 82.5° (Epoch: 18 February)

Event Time Altitude Azimuth Distance (km) Brightness Sun altitude
Rises 05:04:43 0° 193° (SSW) 2,870 6.9 -21.0°
Reaches altitude 10° 05:06:56 10° 195° (SSW) 1,966 6.0 -20.6°
Maximum altitude 05:11:17 75° 280° (W) 637 3.4 -19.9°
Drops below altitude 10° 05:15:39 10° 7° (N) 1,971 6.1 -19.2°
Sets 05:17:52 0° 9° (N) 2,878 7.0 -18.9°
